Kugluktuk,

6:15 AM MDT on July 23, 2017 (GMT -0600)
Kugluktuk

Weather History for CYCO - March, 2013

Change the Weather History Date:

Sunday, March 10, 2013

  Actual Average Record
Temperature  
Mean Temperature -17 °F -  
Max Temperature 0 °F 1 °F 6 °F (1998)
Min Temperature -34 °F -13 °F -40 °F (2014)
Degree Days  
Heating Degree Days 82    
Moisture  
Dew Point -15 °F    
Average Humidity 78    
Maximum Humidity 91    
Minimum Humidity 64    
Precipitation  
Precipitation 0.02 in - - ()
Sea Level Pressure  
Sea Level Pressure 29.91 in    
Wind  
Wind Speed 11 mph ()    
Max Wind Speed 18 mph    
Max Gust Speed 25 mph    
Visibility 3.7 miles    
Events Fog , Snow    
Averages and records for this station are not official NWS values.
T = Trace of Precipitation, MM = Missing Value Source: Averaged Metar Reports

Daily Weather History Graph

Daily Weather History Graph

Search for Another Location

Airport or City:

Trip Planner

Search our weather history database for the weather conditions in past years. The results will help you decide how hot, cold, wet, or windy it might be!

Date:

Astronomy

Mar. 10, 2013 Rise Set
Actual Time 8:20 AM MDT 7:22 PM MDT
Civil Twilight 7:25 AM MDT 8:18 PM MDT
Nautical Twilight 6:20 AM MDT 9:23 PM MDT
Astronomical Twilight 5:08 AM MDT 10:36 PM MDT
Moon 7:38 AM MDT (3/10) 6:32 PM MDT (3/10)
Length of Visible Light 12h 52m
Length of Day
11h 02m
Waning Crescent, 1% of the Moon is Illuminated
Mar 10
Waning Crescent
Mar 11
New
Mar 19
First Quarter
Mar 27
Full
Apr 2
Last Quarter

Hourly Weather History & Observations

Time (MDT) Temp. Windchill Dew Point Humidity Pressure Visibility Wind Dir Wind Speed Gust Speed Precip Events Conditions
12:00 AM -9.4 °F -22.7 °F -16.6 °F 71% 30.06 in 12.0 mi SSE 5.8 mph - N/A   Overcast
12:52 AM - - - N/A% - 10.0 mi South 10.4 mph - N/A   Unknown
1:00 AM -7.6 °F -25.7 °F -13.0 °F 77% 30.02 in 4.0 mi South 10.4 mph - N/A Snow Light Snow
3:00 AM -5.8 °F -25.2 °F -11.2 °F 77% 29.99 in 3.0 mi South 12.7 mph - N/A Snow Light Snow
4:00 AM -5.8 °F -26.8 °F -11.2 °F 77% 29.96 in 6.0 mi SSW 15.0 mph - N/A Snow Light Snow
5:00 AM -4.0 °F -24.5 °F -9.4 °F 78% 29.93 in 4.0 mi SSW 15.0 mph - N/A Snow Light Snow
6:00 AM -3 °F - -9 °F 64% 29.89 in 3 mi SSW 13.8 mph - - Snow Light Snow
6:00 AM -4.0 °F -23.7 °F -9.4 °F 78% 29.89 in 3.0 mi SSW 13.8 mph - N/A Snow Light Snow
7:00 AM -2.2 °F -20.7 °F -7.6 °F 78% 29.87 in 3.0 mi SSW 12.7 mph - N/A Snow Light Snow
8:00 AM -2.2 °F -20.7 °F -9.4 °F 71% 29.84 in 3.0 mi SW 12.7 mph - N/A Snow Light Snow
9:00 AM -2.2 °F -19.9 °F -7.6 °F 78% 29.82 in 4.0 mi SW 11.5 mph - N/A Snow Light Snow
10:00 AM -2.2 °F -18.0 °F -9.4 °F 71% 29.80 in 5.0 mi WSW 9.2 mph - N/A Snow Light Snow
11:00 AM -2.2 °F -16.8 °F -7.6 °F 78% 29.78 in 4.0 mi WSW 8.1 mph - N/A Snow Light Snow
12:00 PM -2 °F - -8 °F 64% 29.77 in 7 mi West 4.6 mph - - Snow Light Snow
12:00 PM -2.2 °F -12.5 °F -7.6 °F 78% 29.77 in 7.0 mi West 4.6 mph - N/A Snow Light Snow
1:00 PM -7.6 °F -28.3 °F -13.0 °F 77% 29.77 in 8.0 mi West 13.8 mph - N/A Snow Light Snow
2:00 PM -11.2 °F -34.4 °F -16.6 °F 77% 29.78 in 8.0 mi West 16.1 mph 23.0 mph N/A Snow Light Snow
2:27 PM - - - N/A% - 10.0 mi West 16.1 mph - N/A   Unknown
3:00 PM -9.4 °F -29.8 °F -16.6 °F 71% 29.81 in 12.0 mi West 12.7 mph - N/A Snow Low Drifting Snow
3:51 PM - - - N/A% - 3.0 mi WNW 12.7 mph - N/A   Ice Crystals
4:00 PM -13.0 °F -35.2 °F -20.2 °F 70% 29.84 in 2.0 mi WNW 13.8 mph - N/A Snow Ice Crystals
4:10 PM - - - N/A% - 1.0 mi WNW 12.7 mph - N/A   Overcast
4:13 PM - - - N/A% - 0.5 mi WNW 13.8 mph - N/A Fog Light Freezing Fog
4:15 PM - - - N/A% - 0.5 mi WNW 13.8 mph - N/A Fog Light Freezing Fog
5:00 PM -13.0 °F -22.7 °F -18.4 °F 77% 29.88 in 0.5 mi NNW 3.5 mph - N/A Fog Light Freezing Fog
6:00 PM -17 °F - -19 °F 82% 29.93 in 0 mi NW 15.0 mph - - Fog Partial Fog
6:00 PM -16.6 °F -40.6 °F -20.2 °F 84% 29.93 in 0.4 mi NW 15.0 mph - N/A Fog , Snow Low Drifting Snow
6:40 PM - - - N/A% - 0.8 mi WNW 11.5 mph - N/A   Overcast
7:00 PM -16.6 °F -35.7 °F -20.2 °F 84% 29.96 in 0.8 mi West 9.2 mph - N/A Snow Low Drifting Snow
8:00 PM -18.4 °F -42.9 °F -20.2 °F 91% 29.99 in 1.5 mi West 15.0 mph - N/A Snow Low Drifting Snow
8:42 PM - - - N/A% - 1.0 mi NW 17.3 mph 23.0 mph N/A   Unknown
9:00 PM -18.4 °F -42.1 °F -22.0 °F 84% 30.01 in 1.0 mi NW 13.8 mph - N/A Snow Low Drifting Snow
9:25 PM - - - N/A% - 1.5 mi WNW 8.1 mph - N/A   Overcast
10:00 PM -18.4 °F -43.7 °F -20.2 °F 91% 30.03 in 1.5 mi NNW 16.1 mph - N/A Snow Light Snow
11:00 PM -18.4 °F -45.2 °F -22.0 °F 84% 30.05 in 1.5 mi NW 18.4 mph 25.3 mph N/A Snow Light Snow
12:00 AM -19 °F - -22 °F 75% 30.08 in 1 mi NW 12.7 mph - - Snow Light Snow
12:00 AM -20.2 °F -43.4 °F -22.0 °F 91% 30.08 in 1.5 mi NW 12.7 mph - N/A Snow Light Snow